Topeka, KS

8:57 AM CST on November 19, 2017 (GMT -0600)
Billard Municipal

Weather History for KTOP - August, 2012

Change the Weather History Date:

Monday, August 13, 2012

  Actual Average Record
Temperature  
Mean Temperature 69 °F 78 °F  
Max Temperature 79 °F 89 °F 113 °F (1936)
Min Temperature 59 °F 67 °F 52 °F (1992)
Degree Days  
Heating Degree Days 0 0  
Month to date heating degree days 0 0  
Since 1 June heating degree days 9 8  
Since 1 July heating degree days 0 0  
Cooling Degree Days 4 13  
Month to date cooling degree days 194 178  
Year to date cooling degree days 1616 1020  
Since 1 June cooling degree days 1298 894  
Growing Degree Days 20 (Base 50)    
Moisture  
Dew Point 59 °F    
Average Humidity 69    
Maximum Humidity 90    
Minimum Humidity 48    
Precipitation  
Precipitation 0.00 in 0.14 in 3.60 in (2005)
Month to date precipitation 0.39 1.75  
Year to date precipitation 15.67 24.08  
Snow  
Snow 0.00 in 0.00 in 0.00 in ()
Month to date snowfall 0.0 0.0  
Year to date snowfall 3.0 11.3  
Since 1 July snowfall 0.0 0.0  
Snow Depth 0.00 in    
Sea Level Pressure  
Sea Level Pressure 30.01 in    
Wind  
Wind Speed 8 mph (NNW)    
Max Wind Speed 20 mph    
Max Gust Speed 25 mph    
Visibility 10 miles    
Events      
T = Trace of Precipitation, MM = Missing Value Source: NWS Daily Summary

Daily Weather History Graph

Daily Weather History Graph

Search for Another Location

Airport or City:

Trip Planner

Search our weather history database for the weather conditions in past years. The results will help you decide how hot, cold, wet, or windy it might be!

Date:

Astronomy

Aug. 13, 2012 Rise Set
Actual Time 6:34 AM CDT 8:19 PM CDT
Civil Twilight 6:05 AM CDT 8:47 PM CDT
Nautical Twilight 5:30 AM CDT 9:22 PM CDT
Astronomical Twilight 4:53 AM CDT 9:59 PM CDT
Moon 2:39 AM CDT (8/13) 5:31 PM CDT (8/13)
Length of Visible Light 14h 42m
Length of Day
13h 45m
Waning Crescent, 16% of the Moon is Illuminated
Aug 13
Waning Crescent
Aug 17
New
Aug 24
First Quarter
Aug 31
Full
Sep 8
Last Quarter

Hourly Weather History & Observations

Time (CDT) Temp. Dew Point Humidity Pressure Visibility Wind Dir Wind Speed Gust Speed Precip Events Conditions
12:53 AM 69.1 °F 57.9 °F 68% 29.93 in 10.0 mi WNW 4.6 mph - N/A   Clear
1:53 AM 68.0 °F 57.9 °F 70% 29.93 in 10.0 mi NW 9.2 mph - N/A   Clear
2:53 AM 66.0 °F 57.9 °F 75% 29.93 in 10.0 mi WNW 4.6 mph - N/A   Clear
3:53 AM 64.9 °F 57.0 °F 75% 29.94 in 10.0 mi WNW 9.2 mph - N/A   Clear
4:48 AM 64.4 °F 57.2 °F 77% 29.98 in 10.0 mi West 5.8 mph - N/A   Mostly Cloudy
4:53 AM 64.0 °F 57.9 °F 80% 29.96 in 10.0 mi WNW 5.8 mph - N/A   Mostly Cloudy
5:53 AM 66.0 °F 59.0 °F 78% 29.96 in 10.0 mi WNW 8.1 mph - N/A   Overcast
6:53 AM 69.1 °F 62.1 °F 78% 29.98 in 10.0 mi NNW 12.7 mph 20.7 mph N/A   Overcast
7:22 AM 68.0 °F 62.6 °F 83% 30.01 in 10.0 mi NNW 12.7 mph 19.6 mph N/A   Scattered Clouds
7:41 AM 69.8 °F 62.6 °F 78% 30.02 in 10.0 mi NNW 12.7 mph 21.9 mph N/A   Mostly Cloudy
7:53 AM 69.1 °F 62.1 °F 78% 30.00 in 10.0 mi NNW 16.1 mph 21.9 mph N/A   Overcast
8:53 AM 68.0 °F 60.1 °F 76% 30.03 in 10.0 mi NNW 12.7 mph 24.2 mph N/A   Overcast
9:53 AM 71.1 °F 60.1 °F 68% 30.03 in 10.0 mi North 12.7 mph 18.4 mph N/A   Overcast
10:53 AM 69.1 °F 60.1 °F 73% 30.06 in 10.0 mi North 11.5 mph 17.3 mph N/A   Overcast
11:53 AM 70.0 °F 61.0 °F 73% 30.06 in 10.0 mi North 12.7 mph - N/A   Overcast
12:53 PM 70.0 °F 60.1 °F 71% 30.07 in 10.0 mi North 8.1 mph - N/A   Overcast
1:53 PM 71.1 °F 60.1 °F 68% 30.07 in 10.0 mi North 10.4 mph - N/A   Overcast
2:28 PM 73.4 °F 60.8 °F 65% 30.08 in 10.0 mi North 10.4 mph 17.3 mph N/A   Overcast
2:53 PM 75.0 °F 59.0 °F 57% 30.05 in 10.0 mi North 6.9 mph - N/A   Overcast
3:53 PM 75.9 °F 59.0 °F 56% 30.05 in 10.0 mi North 5.8 mph - N/A   Overcast
4:53 PM 75.9 °F 59.0 °F 56% 30.04 in 10.0 mi North 8.1 mph - N/A   Overcast
5:53 PM 78.1 °F 57.9 °F 50% 30.03 in 10.0 mi NNW 3.5 mph - N/A   Scattered Clouds
6:53 PM 77.0 °F 57.9 °F 52% 30.02 in 10.0 mi NNE 9.2 mph - N/A   Clear
7:53 PM 72.0 °F 59.0 °F 64% 30.01 in 10.0 mi NE 5.8 mph - N/A   Clear
8:53 PM 68.0 °F 57.9 °F 70% 30.03 in 10.0 mi ENE 3.5 mph - N/A   Clear
9:53 PM 64.9 °F 57.9 °F 78% 30.04 in 10.0 mi SSW 3.5 mph - N/A   Clear
10:53 PM 62.1 °F 57.0 °F 84% 30.04 in 10.0 mi Calm Calm - N/A   Clear
11:53 PM 60.1 °F 57.0 °F 90% 30.05 in 10.0 mi Calm Calm - N/A   Clear